[[{"header":{"parameterUnit":"m.s-1","parameterCategory":1,"la1":30.2991,"la2":30.254,"lo1":-89.0895,"lo2":-89.0444,"dx":0.0017,"dy":0.0017,"nx":28,"ny":28,"refTime":"2022-12-18T15:00:00:Z","depth":0,"parameterNumber":2,"parameterNumberName":"U-component_of_WINDS"},"data":[0,0,0,0,0,0,0,0,0,0,0,0,0,0,0,0,0,0,0,0,0,0,0,0,0,0,0,0,0,0,0,0,0,0,0,0,0,0,0,0,0,0,0,0,0,0,0,0,0,0,0,0,0,0,0,0,0,0,-4.9129,-4.913,0,-4.9185,-4.9186,-4.9187,-4.9009,-4.9004,-4.8998,-4.8993,-4.9053,-4.906,-4.9066,0,0,0,0,0,0,0,0,0,0,0,0,0,-4.8868,-4.8874,-4.9129,-4.913,-4.913,-4.9185,-4.9186,-4.9187,-4.901,-4.9003,-4.8997,-4.8991,-4.9051,-4.9059,-4.9067,0,0,0,0,0,0,0,0,0,0,0,0,0,-4.8959,-4.8876,-4.9129,-4.9049,-4.9042,-4.9185,-4.9186,-4.9187,-4.9011,-4.9003,-4.8995,-4.8988,-4.9048,-4.9058,-4.9068,-4.9292,0,0,-4.9098,-4.9102,0,0,0,0,0,0,0,0,-4.8954,-4.8969,-4.906,-4.9055,-4.9047,-4.9082,-4.9116,-4.9222,-4.9013,-4.9023,-4.8993,-4.8984,-4.9069,-4.9077,-4.9105,-4.9294,-4.9297,-4.9099,-4.9105,-4.9109,-4.9112,0,0,0,0,0,0,0,-4.8948,-4.8965,-4.9151,-4.9061,-4.9054,-4.901,-4.9014,-4.9135,-4.9091,-4.9022,-4.9009,-4.9018,-4.9064,-4.9096,-4.9106,-4.9298,-4.9099,-4.9108,-4.9114,-4.9118,-4.967,-4.9678,0,0,0,0,0,0,-4.8952,-4.8961,-4.9149,-4.9153,-4.898,-4.9021,-4.9026,-4.9079,-4.9089,-4.9083,-4.9025,-4.9009,-4.9083,-4.9094,-4.9107,-4.9368,-4.9109,-4.9119,-4.9124,-4.9661,-4.9672,-4.9681,0,0,0,0,0,0,-4.8947,-4.897,-4.9147,-4.9054,-4.9073,-4.9034,-4.9096,-4.9084,-4.9116,-4.9092,-4.9083,-4.9066,-4.9077,-4.9093,-4.9246,-4.9367,-4.9123,-4.9132,-4.9651,-4.9664,-4.9676,-4.9893,0,0,0,0,0,0,-4.894,-4.897,-4.9055,-4.9057,-4.9078,-4.9287,-4.9103,-4.9091,-4.9134,-4.9114,-4.9128,-4.9122,-4.9072,-4.9232,-4.9256,-4.9377,-4.914,-4.964,-4.9657,-4.9672,-4.9875,-4.9912,-4.9943,0,0,0,0,0,-4.8931,-4.9115,-4.906,-4.9084,-4.9184,-4.9294,-4.9306,-4.9244,-4.9144,-4.9229,-4.9212,-4.9122,-4.935,-4.9249,-4.9275,-4.94,-4.9632,-4.9652,-4.9671,-4.9859,-4.9905,-4.9943,0,0,0,0,0,0,-4.9129,-4.9113,-4.9053,-4.9242,-4.927,-4.9264,-4.9369,-4.9295,-4.9353,-4.9332,-4.9253,-4.9258,-4.9425,-4.9428,-4.9316,-4.9616,-4.9474,-4.9499,-4.9608,-4.9651,-4.9685,-4.9681,-4.9148,0,0,0,0,0,-4.9195,-4.9285,-4.9266,-4.9435,-4.9452,-4.9409,-4.9454,-4.9404,-4.943,-4.9442,-4.9437,-4.9467,-4.9544,-4.9598,-4.9668,-4.9874,-4.9873,-4.9972,-5.0007,-5.0035,-5.0058,-5.0165,-5.0208,-4.9745,-4.9745,-4.9745,0,0,-4.9331,-4.9333,-4.9396,-4.9475,-4.9491,-4.9586,-4.942,-4.9528,-4.9598,-4.9458,-4.9602,-4.96,-4.9627,-4.9807,-4.9886,-4.9814,-5.0186,-5.006,-5.0083,-5.009,-5.0189,-5.0233,-5.0272,-4.9759,-4.9756,-4.9754,0,0,-4.9628,-4.964,-4.978,-4.9799,-4.9825,-4.9794,-4.9828,-4.9832,-4.9825,-4.9967,-4.9864,-4.9945,-5.0082,-5.0105,-5.0135,-5.0438,-5.0356,-5.0463,-5.0643,-5.0748,-5.0784,-5.0816,-5.0923,-5.0962,-5.0486,-5.0487,-5.0487,0,-4.9795,-4.9934,-4.9862,-4.9977,-5.0014,-4.989,-5.0031,-5.0053,-5.0102,-5.013,-5.0049,-5.0216,-5.0226,-5.0408,-5.0482,-5.0511,-5.0546,-5.0462,-5.0784,-5.0816,-5.0844,-5.0945,-5.0986,-5.0499,-5.0498,-5.0497,-5.0495,0,-5.0137,-5.0234,-5.0345,-5.0393,-5.0442,-5.057,-5.0517,-5.0576,-5.052,-5.0498,-5.0644,-5.0651,-5.072,-5.0759,-5.0707,-5.0934,-5.0889,-5.0798,-5.0653,-5.0903,-5.0996,-5.1034,-5.0518,-5.0513,-5.0509,-5.0506,0,0,-5.0562,-5.0566,-5.0608,-5.0627,-5.0646,-5.072,-5.0841,-5.0907,-5.0958,-5.0995,-5.1094,-5.1211,-5.1125,-5.1159,-5.1108,-5.1201,-5.1438,-5.1097,-5.1096,-5.116,-5.1687,-5.1755,-5.1801,-5.1383,-5.139,-5.1396,-5.1684,0,-5.0853,-5.106,-5.0998,-5.1206,-5.1295,-5.1177,-5.1282,-5.1305,-5.1286,-5.1358,-5.1338,-5.1422,-5.1303,-5.1323,-5.1409,-5.1391,-5.1543,-5.1369,-5.1474,-5.1479,-5.1471,-5.185,-5.1923,-5.2195,-5.172,-5.1726,-5.1731,0,-5.1222,-5.1271,-5.1488,-5.1488,-5.1523,-5.1619,-5.1673,-5.1744,-5.1766,-5.1746,-5.1783,-5.1712,-5.1829,-5.1684,-5.1845,-5.1728,-5.1767,-5.1765,-5.1774,-5.1781,-5.162,-5.1867,-5.228,-5.2321,-5.1788,-5.1783,-5.1779,0,-5.1509,-5.163,-5.1774,-5.1794,-5.1799,-5.1869,-5.1874,-5.1888,-5.1931,-5.1978,-5.2005,-5.2066,-5.21,-5.2148,-5.2095,-5.1995,-5.2264,-5.2114,-5.225,-5.2252,-5.2312,-5.2309,-5.2737,-5.2339,-5.2338,-5.2337,-5.2336,0,-5.1841,-5.1978,-5.1903,-5.1992,-5.2141,-5.2068,-5.2218,-5.221,-5.2223,-5.2307,-5.221,-5.2291,-5.2216,-5.2291,-5.225,-5.2389,-5.2405,-5.2392,-5.2379,-5.24,-5.2402,-5.2425,-5.2404,-5.2348,-5.2346,-5.2344,-5.2342,0,-5.2188,-5.2143,-5.2293,-5.2284,-5.2285,-5.2395,-5.2387,-5.2469,-5.2442,-5.2551,-5.2572,-5.2531,-5.2614,-5.2565,-5.265,-5.2622,-5.2802,-5.2764,-5.2795,-5.2784,-5.2922,-5.291,-5.3379,-5.3436,-5.3002,-5.3007,-5.301,0,-5.2403,-5.2505,-5.2506,-5.2556,-5.2567,-5.2648,-5.269,-5.2621,-5.267,-5.2701,-5.2779,-5.2852,-5.2908,-5.3045,-5.3023,-5.3086,-5.3049,-5.3209,-5.3058,-5.3075,-5.305,-5.3044,-5.3053,-5.3239,-5.3244,-5.3249,-5.3252,0,-5.2788,-5.276,-5.2825,-5.2882,-5.2935,-5.2977,-5.301,-5.3056,-5.2987,-5.3046,-5.3128,-5.3172,-5.3256,-5.3331,-5.3384,-5.3388,-5.331,-5.3299,-5.3334,-5.3356,-5.3369,-5.3363,-5.2877,-5.3289,-5.3285,-5.3283,-5.3281,-5.3279,-5.3075,-5.3159,-5.3173,-5.3247,-5.3265,-5.3298,-5.3373,-5.3355,-5.3422,-5.3486,-5.3441,-5.3538,-5.3555,-5.3618,-5.3633,-5.3707,-5.3643,-5.3693,-5.3706,-5.3719,-5.3738,-5.3358,-5.3717,-5.3716,-5.3715,-5.3714,-5.3713,0,-5.3454,-5.3456,-5.3525,-5.3574,-5.3633,-5.3551,-5.3584,-5.3638,-5.3725,-5.3747,-5.3802,-5.3896,-5.3967,-5.3949,-5.4012,-5.4075,-5.404,-5.4094,-5.4089,-5.4091,-5.3792,-5.3756,-5.4121,-5.4121,-5.4121,-5.4121,-5.4121,-5.4121,-5.3658,-5.3796,-5.3769,-5.3914,-5.3915,-5.4009,-5.4034,-5.4063,-5.408,-5.4189,-5.4247,-5.4234,-5.424,-5.4302,-5.4363,-5.4355,-5.4383,-5.445,-5.443,-5.4152,-5.4112,-5.4073,-5.4038,-5.4457,-5.4458,-5.4721,-5.4724,-5.4726]},{"header":{"parameterUnit":"m.s-1","parameterCategory":1,"la1":30.2991,"la2":30.254,"lo1":-89.0895,"lo2":-89.0444,"dx":0.0017,"dy":0.0017,"nx":28,"ny":28,"refTime":"2022-12-18T15:00:00:Z","depth":0,"parameterNumber":3,"parameterNumberName":"V-component_of_WINDS"},"data":[0,0,0,0,0,0,0,0,0,0,0,0,0,0,0,0,0,0,0,0,0,0,0,0,0,0,0,0,0,0,0,0,0,0,0,0,0,0,0,0,0,0,0,0,0,0,0,0,0,0,0,0,0,0,0,0,0,0,-4.1701,-4.1702,0,-4.1772,-4.1773,-4.1774,-4.1731,-4.1729,-4.1727,-4.1725,-4.1795,-4.1798,-4.1802,0,0,0,0,0,0,0,0,0,0,0,0,0,-4.1523,-4.1526,-4.1701,-4.1702,-4.1703,-4.1772,-4.1773,-4.1774,-4.1731,-4.1729,-4.1727,-4.1724,-4.1793,-4.1798,-4.1802,0,0,0,0,0,0,0,0,0,0,0,0,0,-4.1598,-4.1527,-4.1701,-4.169,-4.169,-4.1772,-4.1773,-4.1774,-4.1732,-4.1729,-4.1726,-4.1723,-4.1792,-4.1797,-4.1803,-4.1899,0,0,-4.182,-4.1823,0,0,0,0,0,0,0,0,-4.1593,-4.1604,-4.1691,-4.1691,-4.1691,-4.174,-4.1736,-4.1816,-4.1733,-4.1716,-4.1725,-4.1722,-4.1779,-4.1785,-4.1805,-4.1902,-4.1905,-4.1821,-4.1824,-4.1826,-4.1828,0,0,0,0,0,0,0,-4.1588,-4.1601,-4.1729,-4.1692,-4.1692,-4.168,-4.1687,-4.1751,-4.1763,-4.1717,-4.1714,-4.1723,-4.1778,-4.18,-4.1806,-4.1906,-4.182,-4.1825,-4.1829,-4.1831,-4.2081,-4.2084,0,0,0,0,0,0,-4.1584,-4.1597,-4.1727,-4.1731,-4.1634,-4.1685,-4.1694,-4.1727,-4.1763,-4.1765,-4.1726,-4.1721,-4.1792,-4.18,-4.1809,-4.1921,-4.1826,-4.1832,-4.1835,-4.2078,-4.2082,-4.2085,0,0,0,0,0,0,-4.1581,-4.1596,-4.1724,-4.1663,-4.1678,-4.1692,-4.173,-4.173,-4.1752,-4.1769,-4.1771,-4.1746,-4.179,-4.1801,-4.1876,-4.1922,-4.1834,-4.1839,-4.2074,-4.2079,-4.2083,-4.2147,0,0,0,0,0,0,-4.1576,-4.1595,-4.1633,-4.1664,-4.1682,-4.1792,-4.1733,-4.1734,-4.1762,-4.1756,-4.1789,-4.1791,-4.1788,-4.1868,-4.1882,-4.1929,-4.1844,-4.207,-4.2076,-4.2082,-4.214,-4.2153,-4.2164,0,0,0,0,0,-4.157,-4.1648,-4.1636,-4.1651,-4.173,-4.1795,-4.1804,-4.18,-4.1766,-4.1803,-4.1814,-4.179,-4.1915,-4.1876,-4.1891,-4.194,-4.2067,-4.2074,-4.2081,-4.2135,-4.2151,-4.2164,0,0,0,0,0,0,-4.1622,-4.1652,-4.1638,-4.173,-4.176,-4.1787,-4.1834,-4.1817,-4.1857,-4.185,-4.1842,-4.185,-4.1928,-4.1942,-4.1897,-4.2033,-4.1985,-4.1996,-4.2021,-4.2036,-4.2047,-4.2042,-4.1848,0,0,0,0,0,-4.1644,-4.1696,-4.1719,-4.1797,-4.1813,-4.1821,-4.1849,-4.1843,-4.1874,-4.1886,-4.1902,-4.1932,-4.1977,-4.2007,-4.2051,-4.2142,-4.2147,-4.2183,-4.2195,-4.2205,-4.2214,-4.226,-4.2276,-4.2109,-4.2109,-4.2109,0,0,-4.1691,-4.1713,-4.1746,-4.1808,-4.1831,-4.1882,-4.1832,-4.1889,-4.1927,-4.1894,-4.1966,-4.1979,-4.2011,-4.2094,-4.2131,-4.2108,-4.2261,-4.2214,-4.2222,-4.2225,-4.2269,-4.2285,-4.2299,-4.2114,-4.2113,-4.2113,0,0,-4.1801,-4.1825,-4.1891,-4.1915,-4.1949,-4.1954,-4.197,-4.1999,-4.2007,-4.2079,-4.2055,-4.2098,-4.2178,-4.2201,-4.2223,-4.2339,-4.2318,-4.2353,-4.2414,-4.246,-4.2473,-4.2484,-4.2523,-4.2538,-4.2362,-4.2363,-4.2363,0,-4.1854,-4.1932,-4.1927,-4.1986,-4.2012,-4.1986,-4.2051,-4.2074,-4.2121,-4.2139,-4.2112,-4.221,-4.2229,-4.2316,-4.2344,-4.2364,-4.238,-4.2349,-4.2471,-4.2483,-4.2494,-4.2531,-4.2546,-4.2366,-4.2366,-4.2366,-4.2365,0,-4.1993,-4.2048,-4.2097,-4.2143,-4.2175,-4.2237,-4.224,-4.2272,-4.2263,-4.227,-4.2342,-4.2364,-4.241,-4.2431,-4.2422,-4.2515,-4.2499,-4.2473,-4.2424,-4.2513,-4.2548,-4.2562,-4.2372,-4.2371,-4.237,-4.2369,0,0,-4.2139,-4.2181,-4.2199,-4.2218,-4.2254,-4.2295,-4.2354,-4.24,-4.2426,-4.2459,-4.2507,-4.2574,-4.2548,-4.2573,-4.2567,-4.2607,-4.2695,-4.2575,-4.2575,-4.2594,-4.2795,-4.2814,-4.2831,-4.2681,-4.2684,-4.2686,-4.2792,0,-4.225,-4.2355,-4.2351,-4.2448,-4.2496,-4.2471,-4.2522,-4.2548,-4.2555,-4.2596,-4.2603,-4.265,-4.2614,-4.2628,-4.2667,-4.2676,-4.2734,-4.2668,-4.2723,-4.2725,-4.2714,-4.2849,-4.287,-4.2969,-4.2805,-4.2808,-4.281,0,-4.2394,-4.2431,-4.2533,-4.2559,-4.2579,-4.2625,-4.2665,-4.2705,-4.2733,-4.2735,-4.2762,-4.2749,-4.2806,-4.2757,-4.2835,-4.279,-4.2812,-4.2819,-4.2823,-4.2827,-4.2772,-4.2854,-4.3,-4.3014,-4.2831,-4.2829,-4.2828,0,-4.2487,-4.2563,-4.2633,-4.265,-4.2683,-4.2716,-4.273,-4.2756,-4.2782,-4.2817,-4.2833,-4.2874,-4.2896,-4.2927,-4.2923,-4.2889,-4.3001,-4.2953,-4.3003,-4.3003,-4.3027,-4.3025,-4.3176,-4.3044,-4.3044,-4.3044,-4.3043,0,-4.261,-4.2672,-4.2674,-4.2717,-4.2786,-4.278,-4.2847,-4.2858,-4.2881,-4.2923,-4.2904,-4.2944,-4.2939,-4.2979,-4.2976,-4.3039,-4.305,-4.3052,-4.305,-4.3052,-4.3052,-4.3066,-4.3058,-4.3048,-4.3047,-4.3046,-4.3045,0,-4.2725,-4.2729,-4.2803,-4.2828,-4.2835,-4.2884,-4.2904,-4.2944,-4.2949,-4.3003,-4.3015,-4.3023,-4.3068,-4.3069,-4.3121,-4.3119,-4.3196,-4.3187,-4.3187,-4.3184,-4.3233,-4.3228,-4.3397,-4.3418,-4.3274,-4.3276,-4.3277,0,-4.2803,-4.285,-4.2879,-4.2907,-4.2924,-4.2969,-4.2996,-4.2991,-4.3019,-4.3053,-4.3088,-4.3132,-4.3167,-4.324,-4.3249,-4.3288,-4.3279,-4.3336,-4.3285,-4.3285,-4.3277,-4.3274,-4.3277,-4.3345,-4.3347,-4.3348,-4.3349,0,-4.2939,-4.2938,-4.2978,-4.3018,-4.3051,-4.3082,-4.3111,-4.3135,-4.3133,-4.3165,-4.3212,-4.3239,-4.3292,-4.3335,-4.3372,-4.3385,-4.3366,-4.3366,-4.3379,-4.3381,-4.3377,-4.3377,-4.3211,-4.3361,-4.336,-4.3359,-4.3359,-4.3358,-4.3036,-4.3076,-4.3102,-4.3146,-4.3167,-4.3194,-4.3232,-4.3241,-4.328,-4.3323,-4.3318,-4.3369,-4.3393,-4.3441,-4.3458,-4.3496,-4.3476,-4.3496,-4.3501,-4.3505,-4.3509,-4.3373,-4.3503,-4.3503,-4.3503,-4.3502,-4.3502,0,-4.3168,-4.3184,-4.3225,-4.3266,-4.33,-4.328,-4.3311,-4.334,-4.3386,-4.341,-4.3445,-4.3497,-4.3538,-4.3549,-4.3588,-4.3617,-4.3609,-4.3627,-4.3624,-4.3627,-4.3526,-4.351,-4.3632,-4.3632,-4.3632,-4.3632,-4.3632,-4.3632,-4.3242,-4.3307,-4.3309,-4.3384,-4.3398,-4.3449,-4.3467,-4.3491,-4.351,-4.357,-4.3604,-4.3611,-4.363,-4.367,-4.3705,-4.3708,-4.3722,-4.3743,-4.3741,-4.3647,-4.3634,-4.3621,-4.3606,-4.3747,-4.3747,-4.3838,-4.3839,-4.384]}]]